Year,Month,Day,Hour,Minute,Value (Times are PST for temperature in C)
2015,06,26,00,00,17.10
2015,06,26,00,01,17.10
2015,06,26,00,02,17.10
2015,06,26,00,03,17.00
2015,06,26,00,04,17.00
2015,06,26,00,05,17.00
2015,06,26,00,06,17.00
2015,06,26,00,07,17.00
2015,06,26,00,08,17.00
2015,06,26,00,09,17.00
2015,06,26,00,10,16.90
2015,06,26,00,11,16.90
2015,06,26,00,12,16.90
2015,06,26,00,13,16.90
2015,06,26,00,14,16.80
2015,06,26,00,15,16.80
2015,06,26,00,16,16.80
2015,06,26,00,17,16.80
2015,06,26,00,18,16.70
2015,06,26,00,19,16.70
2015,06,26,00,20,16.70
2015,06,26,00,21,16.70
2015,06,26,00,22,16.70
2015,06,26,00,23,16.70
2015,06,26,00,24,16.70
2015,06,26,00,25,16.70
2015,06,26,00,26,16.70
2015,06,26,00,27,16.70
2015,06,26,00,28,16.70
2015,06,26,00,29,16.70
2015,06,26,00,30,16.70
2015,06,26,00,31,16.70
2015,06,26,00,32,16.70
2015,06,26,00,33,16.70
2015,06,26,00,34,16.60
2015,06,26,00,35,16.60
2015,06,26,00,36,16.60
2015,06,26,00,37,16.60
2015,06,26,00,38,16.60
2015,06,26,00,39,16.60
2015,06,26,00,40,16.60
2015,06,26,00,41,16.50
2015,06,26,00,42,16.40
2015,06,26,00,43,16.40
2015,06,26,00,44,16.40
2015,06,26,00,45,16.40
2015,06,26,00,46,16.40
2015,06,26,00,47,16.40
2015,06,26,00,48,16.40
2015,06,26,00,49,16.40
2015,06,26,00,50,16.40
2015,06,26,00,51,16.40
2015,06,26,00,52,16.40
2015,06,26,00,53,16.40
2015,06,26,00,54,16.40
2015,06,26,00,55,16.40
2015,06,26,00,56,16.40
2015,06,26,00,57,16.30
2015,06,26,00,58,16.30
2015,06,26,00,59,16.30
2015,06,26,01,00,16.30
2015,06,26,01,01,16.30
2015,06,26,01,02,16.30
2015,06,26,01,03,16.20
2015,06,26,01,04,16.20
2015,06,26,01,05,16.20
2015,06,26,01,06,16.20
2015,06,26,01,07,16.20
2015,06,26,01,08,16.20
2015,06,26,01,09,16.10
2015,06,26,01,10,16.10
2015,06,26,01,11,16.10
2015,06,26,01,12,16.10
2015,06,26,01,13,16.10
2015,06,26,01,14,16.10
2015,06,26,01,15,16.10
2015,06,26,01,16,16.10
2015,06,26,01,17,16.10
2015,06,26,01,18,16.10
2015,06,26,01,19,16.10
2015,06,26,01,20,16.10
2015,06,26,01,21,16.10
2015,06,26,01,22,16.10
2015,06,26,01,23,16.10
2015,06,26,01,24,16.10
2015,06,26,01,25,16.10
2015,06,26,01,26,16.10
2015,06,26,01,27,16.10
2015,06,26,01,28,16.10
2015,06,26,01,29,16.10
2015,06,26,01,30,16.00
2015,06,26,01,31,15.90
2015,06,26,01,32,15.90
2015,06,26,01,33,15.90
2015,06,26,01,34,15.90
2015,06,26,01,35,15.90
2015,06,26,01,36,15.80
2015,06,26,01,37,15.80
2015,06,26,01,38,15.80
2015,06,26,01,39,15.80
2015,06,26,01,40,15.80
2015,06,26,01,41,15.80
2015,06,26,01,42,15.80
2015,06,26,01,43,15.80
2015,06,26,01,44,15.80
2015,06,26,01,45,15.80
2015,06,26,01,46,15.80
2015,06,26,01,47,15.80
2015,06,26,01,48,15.80
2015,06,26,01,49,15.80
2015,06,26,01,50,15.80
2015,06,26,01,51,15.80
2015,06,26,01,52,15.80
2015,06,26,01,53,15.80
2015,06,26,01,54,15.80
2015,06,26,01,55,15.80
2015,06,26,01,56,15.80
2015,06,26,01,57,15.80
2015,06,26,01,58,15.80
2015,06,26,01,59,15.80
2015,06,26,02,00,15.80
2015,06,26,02,01,15.80
2015,06,26,02,02,15.80
2015,06,26,02,03,15.80
2015,06,26,02,04,15.80
2015,06,26,02,05,15.80
2015,06,26,02,06,15.80
2015,06,26,02,07,15.80
2015,06,26,02,08,15.80
2015,06,26,02,09,15.80
2015,06,26,02,10,15.80
2015,06,26,02,11,15.80
2015,06,26,02,12,15.80
2015,06,26,02,13,15.80
2015,06,26,02,14,15.80
2015,06,26,02,15,15.80
2015,06,26,02,16,15.80
2015,06,26,02,17,15.80
2015,06,26,02,18,15.80
2015,06,26,02,19,15.80
2015,06,26,02,20,15.80
2015,06,26,02,21,15.80
2015,06,26,02,22,15.80
2015,06,26,02,23,15.80
2015,06,26,02,24,15.80
2015,06,26,02,25,15.80
2015,06,26,02,26,15.80
2015,06,26,02,27,15.80
2015,06,26,02,28,15.80
2015,06,26,02,29,15.80
2015,06,26,02,30,15.80
2015,06,26,02,31,15.80
2015,06,26,02,32,15.80
2015,06,26,02,33,15.80
2015,06,26,02,34,15.80
2015,06,26,02,35,15.80
2015,06,26,02,36,15.80
2015,06,26,02,37,15.70
2015,06,26,02,38,15.70
2015,06,26,02,39,15.70
2015,06,26,02,40,15.70
2015,06,26,02,41,15.60
2015,06,26,02,42,15.60
2015,06,26,02,43,15.60
2015,06,26,02,44,15.60
2015,06,26,02,45,15.50
2015,06,26,02,46,15.50
2015,06,26,02,47,15.50
2015,06,26,02,48,15.50
2015,06,26,02,49,15.50
2015,06,26,02,50,15.50
2015,06,26,02,51,15.40
2015,06,26,02,52,15.40
2015,06,26,02,53,15.40
2015,06,26,02,54,15.40
2015,06,26,02,55,15.40
2015,06,26,02,56,15.40
2015,06,26,02,57,15.40
2015,06,26,02,58,15.40
2015,06,26,02,59,15.40
2015,06,26,03,00,15.40
2015,06,26,03,01,15.40
2015,06,26,03,02,15.40
2015,06,26,03,03,15.50
2015,06,26,03,04,15.50
2015,06,26,03,05,15.50
2015,06,26,03,06,15.50
2015,06,26,03,07,15.50
2015,06,26,03,08,15.50
2015,06,26,03,09,15.50
2015,06,26,03,10,15.50
2015,06,26,03,11,15.50
2015,06,26,03,12,15.50
2015,06,26,03,13,15.50
2015,06,26,03,14,15.50
2015,06,26,03,15,15.50
2015,06,26,03,16,15.50
2015,06,26,03,17,15.50
2015,06,26,03,18,15.50
2015,06,26,03,19,15.50
2015,06,26,03,20,15.50
2015,06,26,03,21,15.50
2015,06,26,03,22,15.50
2015,06,26,03,23,15.50
2015,06,26,03,24,15.50
2015,06,26,03,25,15.50
2015,06,26,03,26,15.50
2015,06,26,03,27,15.50
2015,06,26,03,28,15.50
2015,06,26,03,29,15.50
2015,06,26,03,30,15.50
2015,06,26,03,31,15.50
2015,06,26,03,32,15.50
2015,06,26,03,33,15.50
2015,06,26,03,34,15.50
2015,06,26,03,35,15.50
2015,06,26,03,36,15.50
2015,06,26,03,37,15.50
2015,06,26,03,38,15.60
2015,06,26,03,39,15.60
2015,06,26,03,40,15.60
2015,06,26,03,41,15.60
2015,06,26,03,42,15.60
2015,06,26,03,43,15.60
2015,06,26,03,44,15.60
2015,06,26,03,45,15.50
2015,06,26,03,46,15.50
2015,06,26,03,47,15.50
2015,06,26,03,48,15.40
2015,06,26,03,49,15.40
2015,06,26,03,50,15.40
2015,06,26,03,51,15.30
2015,06,26,03,52,15.30
2015,06,26,03,53,15.30
2015,06,26,03,54,15.30
2015,06,26,03,55,15.20
2015,06,26,03,56,15.20
2015,06,26,03,57,15.20
2015,06,26,03,58,15.20
2015,06,26,03,59,15.10
2015,06,26,04,00,15.10
2015,06,26,04,01,15.10
2015,06,26,04,02,15.00
2015,06,26,04,03,15.00
2015,06,26,04,04,15.00
2015,06,26,04,05,15.00
2015,06,26,04,06,14.90
2015,06,26,04,07,14.90
2015,06,26,04,08,14.90
2015,06,26,04,09,14.80
2015,06,26,04,10,14.80
2015,06,26,04,11,14.80
2015,06,26,04,12,14.80
2015,06,26,04,13,14.80
2015,06,26,04,14,14.80
2015,06,26,04,15,14.80
2015,06,26,04,16,14.80
2015,06,26,04,17,14.80
2015,06,26,04,18,14.70
2015,06,26,04,19,14.70
2015,06,26,04,20,14.70
2015,06,26,04,21,14.70
2015,06,26,04,22,14.70
2015,06,26,04,23,14.70
2015,06,26,04,24,14.70
2015,06,26,04,25,14.70
2015,06,26,04,26,14.70
2015,06,26,04,27,14.70
2015,06,26,04,28,14.70
2015,06,26,04,29,14.70
2015,06,26,04,30,14.70
2015,06,26,04,31,14.70
2015,06,26,04,32,14.70
2015,06,26,04,33,14.70
2015,06,26,04,34,14.70
2015,06,26,04,35,14.70
2015,06,26,04,36,14.80
2015,06,26,04,37,14.80
2015,06,26,04,38,14.80
2015,06,26,04,39,14.80
2015,06,26,04,40,14.80
2015,06,26,04,41,14.80
2015,06,26,04,42,14.80
2015,06,26,04,43,14.90
2015,06,26,04,44,14.90
2015,06,26,04,45,14.90
2015,06,26,04,46,14.90
2015,06,26,04,47,15.00
2015,06,26,04,48,15.00
2015,06,26,04,49,15.00
2015,06,26,04,50,15.00
2015,06,26,04,51,15.00
2015,06,26,04,52,15.00
2015,06,26,04,53,15.00
2015,06,26,04,54,15.00
2015,06,26,04,55,15.00
2015,06,26,04,56,15.00
2015,06,26,04,57,15.00
2015,06,26,04,58,15.00
2015,06,26,04,59,15.00
2015,06,26,05,00,15.00
2015,06,26,05,01,15.00
2015,06,26,05,02,15.00
2015,06,26,05,03,15.00
2015,06,26,05,04,14.90
2015,06,26,05,05,14.90
2015,06,26,05,06,14.90
2015,06,26,05,07,14.90
2015,06,26,05,08,14.90
2015,06,26,05,09,14.80
2015,06,26,05,10,14.80
2015,06,26,05,11,14.80
2015,06,26,05,12,14.80
2015,06,26,05,13,14.80
2015,06,26,05,14,14.80
2015,06,26,05,15,14.80
2015,06,26,05,16,14.70
2015,06,26,05,17,14.70
2015,06,26,05,18,14.70
2015,06,26,05,19,14.70
2015,06,26,05,20,14.70
2015,06,26,05,21,14.60
2015,06,26,05,22,14.60
2015,06,26,05,23,14.60
2015,06,26,05,24,14.60
2015,06,26,05,25,14.60
2015,06,26,05,26,14.50
2015,06,26,05,27,14.50
2015,06,26,05,28,14.50
2015,06,26,05,29,14.50
2015,06,26,05,30,14.40
2015,06,26,05,31,14.40
2015,06,26,05,32,14.40
2015,06,26,05,33,14.40
2015,06,26,05,34,14.40
2015,06,26,05,35,14.40
2015,06,26,05,36,14.40
2015,06,26,05,37,14.30
2015,06,26,05,38,14.30
2015,06,26,05,39,14.30
2015,06,26,05,40,14.30
2015,06,26,05,41,14.30
2015,06,26,05,42,14.30
2015,06,26,05,43,14.30
2015,06,26,05,44,14.30
2015,06,26,05,45,14.30
2015,06,26,05,46,14.30
2015,06,26,05,47,14.30
2015,06,26,05,48,14.30
2015,06,26,05,49,14.30
2015,06,26,05,50,14.30
2015,06,26,05,51,14.30
2015,06,26,05,52,14.30
2015,06,26,05,53,14.30
2015,06,26,05,54,14.30
2015,06,26,05,55,14.30
2015,06,26,05,56,14.30
2015,06,26,05,57,14.30
2015,06,26,05,58,14.30
2015,06,26,05,59,14.30
2015,06,26,06,00,14.30
2015,06,26,06,01,14.30
2015,06,26,06,02,14.30
2015,06,26,06,03,14.30
2015,06,26,06,04,14.30
2015,06,26,06,05,14.30
2015,06,26,06,06,14.30
2015,06,26,06,07,14.30
2015,06,26,06,08,14.30
2015,06,26,06,09,14.30
2015,06,26,06,10,14.30
2015,06,26,06,11,14.40
2015,06,26,06,12,14.40
2015,06,26,06,13,14.40
2015,06,26,06,14,14.40
2015,06,26,06,15,14.40
2015,06,26,06,16,14.40
2015,06,26,06,17,14.50
2015,06,26,06,18,14.50
2015,06,26,06,19,14.50
2015,06,26,06,20,14.50
2015,06,26,06,21,14.50
2015,06,26,06,22,14.50
2015,06,26,06,23,14.50
2015,06,26,06,24,14.50
2015,06,26,06,25,14.60
2015,06,26,06,26,14.60
2015,06,26,06,27,14.60
2015,06,26,06,28,14.60
2015,06,26,06,29,14.60
2015,06,26,06,30,14.60
2015,06,26,06,31,14.60
2015,06,26,06,32,14.60
2015,06,26,06,33,14.70
2015,06,26,06,34,14.70
2015,06,26,06,35,14.70
2015,06,26,06,36,14.70
2015,06,26,06,37,14.70
2015,06,26,06,38,14.70
2015,06,26,06,39,14.70
2015,06,26,06,40,14.80
2015,06,26,06,41,14.80
2015,06,26,06,42,14.80
2015,06,26,06,43,14.80
2015,06,26,06,44,14.80
2015,06,26,06,45,14.80
2015,06,26,06,46,14.80
2015,06,26,06,47,14.80
2015,06,26,06,48,14.80
2015,06,26,06,49,14.90
2015,06,26,06,50,14.90
2015,06,26,06,51,14.90
2015,06,26,06,52,15.00
2015,06,26,06,53,15.00
2015,06,26,06,54,15.10
2015,06,26,06,55,15.10
2015,06,26,06,56,15.20
2015,06,26,06,57,15.20
2015,06,26,06,58,15.30
2015,06,26,06,59,15.30
2015,06,26,07,00,15.30
2015,06,26,07,01,15.40
2015,06,26,07,02,15.50
2015,06,26,07,03,15.50
2015,06,26,07,04,15.50
2015,06,26,07,05,15.60
2015,06,26,07,06,15.70
2015,06,26,07,07,15.70
2015,06,26,07,08,15.80
2015,06,26,07,09,15.80
2015,06,26,07,10,15.90
2015,06,26,07,11,15.90
2015,06,26,07,12,16.00
2015,06,26,07,13,16.10
2015,06,26,07,14,16.10
2015,06,26,07,15,16.20
2015,06,26,07,16,16.20
2015,06,26,07,17,16.30
2015,06,26,07,18,16.40
2015,06,26,07,19,16.50
2015,06,26,07,20,16.70
2015,06,26,07,21,16.80
2015,06,26,07,22,16.90
2015,06,26,07,23,17.00
2015,06,26,07,24,17.20
2015,06,26,07,25,17.30
2015,06,26,07,26,17.40
2015,06,26,07,27,17.50
2015,06,26,07,28,17.60
2015,06,26,07,29,17.70
2015,06,26,07,30,17.80
2015,06,26,07,31,17.90
2015,06,26,07,32,17.90
2015,06,26,07,33,18.10
2015,06,26,07,34,18.30
2015,06,26,07,35,18.40
2015,06,26,07,36,18.50
2015,06,26,07,37,18.70
2015,06,26,07,38,18.80
2015,06,26,07,39,18.90
2015,06,26,07,40,19.00
2015,06,26,07,41,19.10
2015,06,26,07,42,19.30
2015,06,26,07,43,19.40
2015,06,26,07,44,19.40
2015,06,26,07,45,19.50
2015,06,26,07,46,19.60
2015,06,26,07,47,19.60
2015,06,26,07,48,19.70
2015,06,26,07,49,19.80
2015,06,26,07,50,19.90
2015,06,26,07,51,19.90
2015,06,26,07,52,19.90
2015,06,26,07,53,19.90
2015,06,26,07,54,20.10
2015,06,26,07,55,20.10
2015,06,26,07,56,20.20
2015,06,26,07,57,20.20
2015,06,26,07,58,20.20
2015,06,26,07,59,20.20
2015,06,26,08,00,20.20
2015,06,26,08,01,20.30
2015,06,26,08,02,20.30
2015,06,26,08,03,20.30
2015,06,26,08,04,20.40
2015,06,26,08,05,20.40
2015,06,26,08,06,20.40
2015,06,26,08,07,20.40
2015,06,26,08,08,20.40
2015,06,26,08,09,20.40
2015,06,26,08,10,20.50
2015,06,26,08,11,20.50
2015,06,26,08,12,20.50
2015,06,26,08,13,20.60
2015,06,26,08,14,20.60
2015,06,26,08,15,20.70
2015,06,26,08,16,20.80
2015,06,26,08,17,20.90
2015,06,26,08,18,20.90
2015,06,26,08,19,21.00
2015,06,26,08,20,21.00
2015,06,26,08,21,21.10
2015,06,26,08,22,21.10
2015,06,26,08,23,21.20
2015,06,26,08,24,21.20
2015,06,26,08,25,21.20
2015,06,26,08,26,21.30
2015,06,26,08,27,21.30
2015,06,26,08,28,21.30
2015,06,26,08,29,21.40
2015,06,26,08,30,21.50
2015,06,26,08,31,21.60
2015,06,26,08,32,21.60
2015,06,26,08,33,21.70
2015,06,26,08,34,21.90
2015,06,26,08,35,22.00
2015,06,26,08,36,22.10
2015,06,26,08,37,22.20
2015,06,26,08,38,22.40
2015,06,26,08,39,22.50
2015,06,26,08,40,22.50
2015,06,26,08,41,22.60
2015,06,26,08,42,22.70
2015,06,26,08,43,22.80
2015,06,26,08,44,22.90
2015,06,26,08,45,22.90
2015,06,26,08,46,22.90
2015,06,26,08,47,23.00
2015,06,26,08,48,23.10
2015,06,26,08,49,23.10
2015,06,26,08,50,23.20
2015,06,26,08,51,23.30
2015,06,26,08,52,23.30
2015,06,26,08,53,23.30
2015,06,26,08,54,23.30
2015,06,26,08,55,23.30
2015,06,26,08,56,23.30
2015,06,26,08,57,23.30
2015,06,26,08,58,23.40
2015,06,26,08,59,23.40
2015,06,26,09,00,23.60
2015,06,26,09,01,23.60
2015,06,26,09,02,23.70
2015,06,26,09,03,23.70
2015,06,26,09,04,23.80
2015,06,26,09,05,23.90
2015,06,26,09,06,24.00
2015,06,26,09,07,24.10
2015,06,26,09,08,24.10
2015,06,26,09,09,24.10
2015,06,26,09,10,24.10
2015,06,26,09,11,24.10
2015,06,26,09,12,24.20
2015,06,26,09,13,24.20
2015,06,26,09,14,24.20
2015,06,26,09,15,24.10
2015,06,26,09,16,24.10
2015,06,26,09,17,24.00
2015,06,26,09,18,23.90
2015,06,26,09,19,23.80
2015,06,26,09,20,23.70
2015,06,26,09,21,23.70
2015,06,26,09,22,23.70
2015,06,26,09,23,23.60
2015,06,26,09,24,23.60
2015,06,26,09,25,23.60
2015,06,26,09,26,23.60
2015,06,26,09,27,23.60
2015,06,26,09,28,23.60
2015,06,26,09,29,23.70
2015,06,26,09,30,23.70
2015,06,26,09,31,23.70
2015,06,26,09,32,23.70
2015,06,26,09,33,23.70
2015,06,26,09,34,23.70
2015,06,26,09,35,23.70
2015,06,26,09,36,23.70
2015,06,26,09,37,23.80
2015,06,26,09,38,23.90
2015,06,26,09,39,23.90
2015,06,26,09,40,23.90
2015,06,26,09,41,23.90
2015,06,26,09,42,23.90
2015,06,26,09,43,23.90
2015,06,26,09,44,24.00
2015,06,26,09,45,24.10
2015,06,26,09,46,24.10
2015,06,26,09,47,24.10
2015,06,26,09,48,24.20
2015,06,26,09,49,24.20
2015,06,26,09,50,24.10
2015,06,26,09,51,24.10
2015,06,26,09,52,24.20
2015,06,26,09,53,24.30
2015,06,26,09,54,24.40
2015,06,26,09,55,24.40
2015,06,26,09,56,24.40
2015,06,26,09,57,24.30
2015,06,26,09,58,24.20
2015,06,26,09,59,24.20
2015,06,26,10,00,24.20
2015,06,26,10,01,24.30
2015,06,26,10,02,24.30
2015,06,26,10,03,24.40
2015,06,26,10,04,24.40
2015,06,26,10,05,24.50
2015,06,26,10,06,24.50
2015,06,26,10,07,24.50
2015,06,26,10,08,24.50
2015,06,26,10,09,24.60
2015,06,26,10,10,24.60
2015,06,26,10,11,24.60
2015,06,26,10,12,24.60
2015,06,26,10,13,24.70
2015,06,26,10,14,24.80
2015,06,26,10,15,24.80
2015,06,26,10,16,24.90
2015,06,26,10,17,24.90
2015,06,26,10,18,25.00
2015,06,26,10,19,25.00
2015,06,26,10,20,25.00
2015,06,26,10,21,25.10
2015,06,26,10,22,25.10
2015,06,26,10,23,25.20
2015,06,26,10,24,25.20
2015,06,26,10,25,25.30
2015,06,26,10,26,25.30
2015,06,26,10,27,25.30
2015,06,26,10,28,25.40
2015,06,26,10,29,25.40
2015,06,26,10,30,25.40
2015,06,26,10,31,25.40
2015,06,26,10,32,25.50
2015,06,26,10,33,25.50
2015,06,26,10,34,25.60
2015,06,26,10,35,25.70
2015,06,26,10,36,25.80
2015,06,26,10,37,25.90
2015,06,26,10,38,25.90
2015,06,26,10,39,26.00
2015,06,26,10,40,26.00
2015,06,26,10,41,26.10
2015,06,26,10,42,26.10
2015,06,26,10,43,26.20
2015,06,26,10,44,26.20
2015,06,26,10,45,26.10
2015,06,26,10,46,26.10
2015,06,26,10,47,26.10
2015,06,26,10,48,26.10
2015,06,26,10,49,26.10
2015,06,26,10,50,26.10
2015,06,26,10,51,26.10
2015,06,26,10,52,26.10
2015,06,26,10,53,26.00
2015,06,26,10,54,26.00
2015,06,26,10,55,26.00
2015,06,26,10,56,26.00
2015,06,26,10,57,26.10
2015,06,26,10,58,25.90
2015,06,26,10,59,25.80
2015,06,26,11,00,25.60
2015,06,26,11,01,25.50
2015,06,26,11,02,25.30
2015,06,26,11,03,25.20
2015,06,26,11,04,25.20
2015,06,26,11,05,25.20
2015,06,26,11,06,25.20
2015,06,26,11,07,25.20
2015,06,26,11,08,25.30
2015,06,26,11,09,25.40
2015,06,26,11,10,25.50
2015,06,26,11,11,25.60
2015,06,26,11,12,25.60
2015,06,26,11,13,25.70
2015,06,26,11,14,25.80
2015,06,26,11,15,25.70
2015,06,26,11,16,25.80
2015,06,26,11,17,25.80
2015,06,26,11,18,25.90
2015,06,26,11,19,25.90
2015,06,26,11,20,25.90
2015,06,26,11,21,25.90
2015,06,26,11,22,26.00
2015,06,26,11,23,26.00
2015,06,26,11,24,26.10
2015,06,26,11,25,26.10
2015,06,26,11,26,26.10
2015,06,26,11,27,26.00
2015,06,26,11,28,26.00
2015,06,26,11,29,26.00
2015,06,26,11,30,26.00
2015,06,26,11,31,26.10
2015,06,26,11,32,26.10
2015,06,26,11,33,26.20
2015,06,26,11,34,26.20
2015,06,26,11,35,26.20
2015,06,26,11,36,26.30
2015,06,26,11,37,26.40
2015,06,26,11,38,26.40
2015,06,26,11,39,26.50
2015,06,26,11,40,26.60
2015,06,26,11,41,26.60
2015,06,26,11,42,26.60
2015,06,26,11,43,26.60
2015,06,26,11,44,26.70
2015,06,26,11,45,26.70
2015,06,26,11,46,26.70
2015,06,26,11,47,26.80
2015,06,26,11,48,26.90
2015,06,26,11,49,26.90
2015,06,26,11,50,26.90
2015,06,26,11,51,26.90
2015,06,26,11,52,26.90
2015,06,26,11,53,27.00
2015,06,26,11,54,27.10
2015,06,26,11,55,27.10
2015,06,26,11,56,27.10
2015,06,26,11,57,27.10
2015,06,26,11,58,27.20
2015,06,26,11,59,27.20
2015,06,26,12,00,27.20
2015,06,26,12,01,27.30
2015,06,26,12,02,27.30
2015,06,26,12,03,27.30
2015,06,26,12,04,27.30
2015,06,26,12,05,27.40
2015,06,26,12,06,27.50
2015,06,26,12,07,27.70
2015,06,26,12,08,27.90
2015,06,26,12,09,28.00
2015,06,26,12,10,28.00
2015,06,26,12,11,28.00
2015,06,26,12,12,27.90
2015,06,26,12,13,27.90
2015,06,26,12,14,27.90
2015,06,26,12,15,27.90
2015,06,26,12,16,28.00
2015,06,26,12,17,28.00
2015,06,26,12,18,28.10
2015,06,26,12,19,28.20
2015,06,26,12,20,28.10
2015,06,26,12,21,28.20
2015,06,26,12,22,28.20
2015,06,26,12,23,28.30
2015,06,26,12,24,28.30
2015,06,26,12,25,28.30
2015,06,26,12,26,28.30
2015,06,26,12,27,28.30
2015,06,26,12,28,28.40
2015,06,26,12,29,28.40
2015,06,26,12,30,28.50
2015,06,26,12,31,28.60
2015,06,26,12,32,28.60
2015,06,26,12,33,28.60
2015,06,26,12,34,28.40
2015,06,26,12,35,28.30
2015,06,26,12,36,28.20
2015,06,26,12,37,28.00
2015,06,26,12,38,27.90
2015,06,26,12,39,27.80
2015,06,26,12,40,27.80
2015,06,26,12,41,27.70
2015,06,26,12,42,27.70
2015,06,26,12,43,27.70
2015,06,26,12,44,27.70
2015,06,26,12,45,27.70
2015,06,26,12,46,27.70
2015,06,26,12,47,27.80
2015,06,26,12,48,27.90
2015,06,26,12,49,27.90
2015,06,26,12,50,27.90
2015,06,26,12,51,27.90
2015,06,26,12,52,27.90
2015,06,26,12,53,27.90
2015,06,26,12,54,27.90
2015,06,26,12,55,28.00
2015,06,26,12,56,28.00
2015,06,26,12,57,27.90
2015,06,26,12,58,27.90
2015,06,26,12,59,27.90
2015,06,26,13,00,27.80
2015,06,26,13,01,27.80
2015,06,26,13,02,27.80
2015,06,26,13,03,27.80
2015,06,26,13,04,27.90
2015,06,26,13,05,28.00
2015,06,26,13,06,28.00
2015,06,26,13,07,28.00
2015,06,26,13,08,28.00
2015,06,26,13,09,28.00
2015,06,26,13,10,28.00
2015,06,26,13,11,27.90
2015,06,26,13,12,27.70
2015,06,26,13,13,27.70
2015,06,26,13,14,27.70
2015,06,26,13,15,27.70
2015,06,26,13,16,27.80
2015,06,26,13,17,27.80
2015,06,26,13,18,27.80
2015,06,26,13,19,27.80
2015,06,26,13,20,27.80
2015,06,26,13,21,27.90
2015,06,26,13,22,27.90
2015,06,26,13,23,28.10
2015,06,26,13,24,28.20
2015,06,26,13,25,28.40
2015,06,26,13,26,28.40
2015,06,26,13,27,28.40
2015,06,26,13,28,28.50
2015,06,26,13,29,28.60
2015,06,26,13,30,28.60
2015,06,26,13,31,28.60
2015,06,26,13,32,28.50
2015,06,26,13,33,28.40
2015,06,26,13,34,28.40
2015,06,26,13,35,28.40
2015,06,26,13,36,28.40
2015,06,26,13,37,28.40
2015,06,26,13,38,28.40
2015,06,26,13,39,28.30
2015,06,26,13,40,28.30
2015,06,26,13,41,28.30
2015,06,26,13,42,28.40
2015,06,26,13,43,28.40
2015,06,26,13,44,28.40
2015,06,26,13,45,28.50
2015,06,26,13,46,28.60
2015,06,26,13,47,28.60
2015,06,26,13,48,28.40
2015,06,26,13,49,28.30
2015,06,26,13,50,28.20
2015,06,26,13,51,28.20
2015,06,26,13,52,28.20
2015,06,26,13,53,28.20
2015,06,26,13,54,28.20
2015,06,26,13,55,28.10
2015,06,26,13,56,28.00
2015,06,26,13,57,28.00
2015,06,26,13,58,28.00
2015,06,26,13,59,28.00
2015,06,26,14,00,28.00
2015,06,26,14,01,28.00
2015,06,26,14,02,28.00
2015,06,26,14,03,28.00
2015,06,26,14,04,28.00
2015,06,26,14,05,28.10
2015,06,26,14,06,28.10
2015,06,26,14,07,28.10
2015,06,26,14,08,28.20
2015,06,26,14,09,28.30
2015,06,26,14,10,28.50
2015,06,26,14,11,28.60
2015,06,26,14,12,28.70
2015,06,26,14,13,28.70
2015,06,26,14,14,28.80
2015,06,26,14,15,28.90
2015,06,26,14,16,28.90
2015,06,26,14,17,28.90
2015,06,26,14,18,28.90
2015,06,26,14,19,28.90
2015,06,26,14,20,28.90
2015,06,26,14,21,28.80
2015,06,26,14,22,28.80
2015,06,26,14,23,28.70
2015,06,26,14,24,28.70
2015,06,26,14,25,28.70
2015,06,26,14,26,28.70
2015,06,26,14,27,28.70
2015,06,26,14,28,28.80
2015,06,26,14,29,28.90
2015,06,26,14,30,29.00
2015,06,26,14,31,29.10
2015,06,26,14,32,29.10
2015,06,26,14,33,29.20
2015,06,26,14,34,29.20
2015,06,26,14,35,29.20
2015,06,26,14,36,29.20
2015,06,26,14,37,29.20
2015,06,26,14,38,29.20
2015,06,26,14,39,29.20
2015,06,26,14,40,29.10
2015,06,26,14,41,29.10
2015,06,26,14,42,29.10
2015,06,26,14,43,29.10
2015,06,26,14,44,29.10
2015,06,26,14,45,29.10
2015,06,26,14,46,29.20
2015,06,26,14,47,29.20
2015,06,26,14,48,29.30
2015,06,26,14,49,29.40
2015,06,26,14,50,29.40
2015,06,26,14,51,29.50
2015,06,26,14,52,29.50
2015,06,26,14,53,29.40
2015,06,26,14,54,29.50
2015,06,26,14,55,29.50
2015,06,26,14,56,29.60
2015,06,26,14,57,29.70
2015,06,26,14,58,29.70
2015,06,26,14,59,29.80
2015,06,26,15,00,29.80
2015,06,26,15,01,29.90
2015,06,26,15,02,29.90
2015,06,26,15,03,29.90
2015,06,26,15,04,29.90
2015,06,26,15,05,30.00
2015,06,26,15,06,30.00
2015,06,26,15,07,29.90
2015,06,26,15,08,29.80
2015,06,26,15,09,29.80
2015,06,26,15,10,29.80
2015,06,26,15,11,29.80
2015,06,26,15,12,29.80
2015,06,26,15,13,29.70
2015,06,26,15,14,29.70
2015,06,26,15,15,29.60
2015,06,26,15,16,29.50
2015,06,26,15,17,29.50
2015,06,26,15,18,29.30
2015,06,26,15,19,29.10
2015,06,26,15,20,29.10
2015,06,26,15,21,29.00
2015,06,26,15,22,28.90
2015,06,26,15,23,29.10
2015,06,26,15,24,29.10
2015,06,26,15,25,29.10
2015,06,26,15,26,29.20
2015,06,26,15,27,29.20
2015,06,26,15,28,29.30
2015,06,26,15,29,29.30
2015,06,26,15,30,29.30
2015,06,26,15,31,29.20
2015,06,26,15,32,29.10
2015,06,26,15,33,29.10
2015,06,26,15,34,29.20
2015,06,26,15,35,29.20
2015,06,26,15,36,29.30
2015,06,26,15,37,29.40
2015,06,26,15,38,29.40
2015,06,26,15,39,29.40
2015,06,26,15,40,29.50
2015,06,26,15,41,29.50
2015,06,26,15,42,29.50
2015,06,26,15,43,29.60
2015,06,26,15,44,29.70
2015,06,26,15,45,29.70
2015,06,26,15,46,29.80
2015,06,26,15,47,29.80
2015,06,26,15,48,29.80
2015,06,26,15,49,29.90
2015,06,26,15,50,29.90
2015,06,26,15,51,29.90
2015,06,26,15,52,29.80
2015,06,26,15,53,29.80
2015,06,26,15,54,29.80
2015,06,26,15,55,29.80
2015,06,26,15,56,29.80
2015,06,26,15,57,29.80
2015,06,26,15,58,29.80
2015,06,26,15,59,29.80
2015,06,26,16,00,29.80
2015,06,26,16,01,29.60
2015,06,26,16,02,29.50
2015,06,26,16,03,29.50
2015,06,26,16,04,29.40
2015,06,26,16,05,29.40
2015,06,26,16,06,29.40
2015,06,26,16,07,29.30
2015,06,26,16,08,29.30
2015,06,26,16,09,29.20
2015,06,26,16,10,29.20
2015,06,26,16,11,29.10
2015,06,26,16,12,29.10
2015,06,26,16,13,29.10
2015,06,26,16,14,29.10
2015,06,26,16,15,29.10
2015,06,26,16,16,29.10
2015,06,26,16,17,29.10
2015,06,26,16,18,29.00
2015,06,26,16,19,28.90
2015,06,26,16,20,28.90
2015,06,26,16,21,28.90
2015,06,26,16,22,28.80
2015,06,26,16,23,28.80
2015,06,26,16,24,28.70
2015,06,26,16,25,28.60
2015,06,26,16,26,28.60
2015,06,26,16,27,28.60
2015,06,26,16,28,28.50
2015,06,26,16,29,28.40
2015,06,26,16,30,28.40
2015,06,26,16,31,28.40
2015,06,26,16,32,28.30
2015,06,26,16,33,28.30
2015,06,26,16,34,28.30
2015,06,26,16,35,28.30
2015,06,26,16,36,28.20
2015,06,26,16,37,28.20
2015,06,26,16,38,28.10
2015,06,26,16,39,28.10
2015,06,26,16,40,28.00
2015,06,26,16,41,27.90
2015,06,26,16,42,27.90
2015,06,26,16,43,27.90
2015,06,26,16,44,27.90
2015,06,26,16,45,27.80
2015,06,26,16,46,27.80
2015,06,26,16,47,27.80
2015,06,26,16,48,27.80
2015,06,26,16,49,27.80
2015,06,26,16,50,27.80
2015,06,26,16,51,27.80
2015,06,26,16,52,27.80
2015,06,26,16,53,27.80
2015,06,26,16,54,27.80
2015,06,26,16,55,27.80
2015,06,26,16,56,27.80
2015,06,26,16,57,27.80
2015,06,26,16,58,27.90
2015,06,26,16,59,27.90
2015,06,26,17,00,27.90
2015,06,26,17,01,27.90
2015,06,26,17,02,27.90
2015,06,26,17,03,27.90
2015,06,26,17,04,27.80
2015,06,26,17,05,27.80
2015,06,26,17,06,27.80
2015,06,26,17,07,27.80
2015,06,26,17,08,27.80
2015,06,26,17,09,27.80
2015,06,26,17,10,27.80
2015,06,26,17,11,27.80
2015,06,26,17,12,27.80
2015,06,26,17,13,27.80
2015,06,26,17,14,27.80
2015,06,26,17,15,27.80
2015,06,26,17,16,27.80
2015,06,26,17,17,27.80
2015,06,26,17,18,27.80
2015,06,26,17,19,27.70